Regional Weather Roundup
Issued by NWS

Home | Current Version | Previous Version | Graphics & Text | Print | Product List | Glossary On
Versions: 1 2 3 4 5 6 7 8 9 10 11 12 13 14 15 16 17 18 19 20 21 22 23 24 25 26 27 28 29 30 31 32 33 34 35 36 37 38 39 40 41 42 43 44 45 46 47 48 49 50
000
ASUS43 KIND 280659
RWRIN

WEATHER ROUNDUP FOR INDIANA
NATIONAL WEATHER SERVICE INDIANAPOLIS IN
200 AM EST FRI NOV 28 2014

NOTE: "FAIR" INDICATES FEW OR NO CLOUDS BELOW 12,000 FEET WITH NO
SIGNIFICANT WEATHER AND/OR OBSTRUCTIONS TO VISIBILITY.

* - STATION DOES NOT REPORT WEATHER SUCH AS PRECIPITATION OR FOG.

+ - STATION NOT QUALITY CONTROLLED BY THE NATIONAL WEATHER SERVICE.
    USE DATA WITH CAUTION...ESPECIALLY DEWPOINT AND RELATIVE
    HUMIDITY OBSERVATIONS.

INZ001>003-010>013-019-020-280800-
NORTHWEST INDIANA

CITY           SKY/WX    TMP DP  RH WIND       PRES   REMARKS
VALPARAISO     NOT AVBL

$$

LMZ046-743>745-280800-
SOUTHERN LAKE MICHIGAN

STATION/POSITION TIME  TEMP WIND        PRES
                       AIR  DIR/SP/G
                 (UTC) (F)  (DEG/KT/KT) (MB)
MICHIGAN CITY    0600   23  210/  9/ 11   N/A

$$

INZ004-005-014>016-021>024-280800-
NORTH CENTRAL INDIANA

CITY           SKY/WX    TMP DP  RH WIND       PRES   REMARKS
GOSHEN         PTCLDY    15  11  83 SW5       30.35R WCI   8
SOUTH BEND     CLOUDY    22  13  68 W8        30.35F WCI  12

$$

INZ006>009-017-018-025>027-280800-
NORTHEAST INDIANA

CITY           SKY/WX    TMP DP  RH WIND       PRES   REMARKS
ANGOLA *+      CLOUDY    21  18  86 NW3       30.32S
FORT WAYNE     PTCLDY    21  16  81 W7        30.36S WCI  12

$$

INZ028-029-035-036-043>045-051>053-280800-
WEST CENTRAL INDIANA

CITY           SKY/WX    TMP DP  RH WIND       PRES   REMARKS
GREENCASTLE +  CLEAR     18  16  93 CALM      30.39S FOG
LAFAYETTE      CLEAR     17  14  88 CALM      30.38F
TERRE HAUTE    CLEAR     18  15  88 W3        30.42R

$$

INZ030>032-037>040-046>048-054>057-064-065-280800-
CENTRAL INDIANA

CITY           SKY/WX    TMP DP  RH WIND       PRES   REMARKS
INDIANAPOLIS   CLOUDY    23  16  74 NW3       30.37S
-EAGLE CREEK   PTCLDY    22  13  68 NW6       30.37F WCI  14
KOKOMO *+      CLOUDY    25  18  74 W12       30.36F WCI  14
MT COMFORT *+  PTCLDY    21  12  68 NW3       30.38S
SHELBYVILLE    CLOUDY    26  18  71 NW5       30.37F WCI  20

$$

INZ033-034-041-042-049-050-058-059-280800-
EAST CENTRAL INDIANA

CITY           SKY/WX    TMP DP  RH WIND       PRES   REMARKS
MUNCIE         CLOUDY    22  15  75 W6        30.36S WCI  14

$$

INZ060-061-067>069-081>083-085>088-280800-
SOUTHWEST INDIANA

CITY           SKY/WX    TMP DP  RH WIND       PRES   REMARKS
EVANSVILLE     CLEAR     24  20  84 CALM      30.45F
HUNTINGBURG *+ CLEAR     21  16  79 SW6       30.44R WCI  14

$$

INZ062-063-066-070>080-084-089>092-280800-
SOUTH CENTRAL AND SOUTHEAST INDIANA

CITY           SKY/WX    TMP DP  RH WIND       PRES   REMARKS
BLOOMINGTON    CLEAR     16  14  92 SW5       30.40S WCI   9

$$



USA.gov is the U.S. government's official web portal to all federal, state and local government web resources and services.